Location: Argonnex
(45.9500°N, 6.1333°E)
Time: 04:47:09
(UTC+00:00)

Cosmos 2266 Rocket - Pass Details

Date: 08 August 2024
Orbit: 933 x 1008 km, 82.9° (Epoch: 08 September)

Event Time Altitude Azimuth Distance (km) Brightness Sun altitude
Rises 02:37:07 0° 343° (NNW) 3,602 7.4 -16.4°
Reaches altitude 10° 02:39:52 10° 333° (NNW) 2,652 6.5 -16.1°
Maximum altitude 02:45:02 31° 274° (W) 1,588 4.8 -15.4°
Enters shadow 02:47:42 22° 233° (SW) 1,930 4.9 -15.1°
